INTELSAT 16 (IS-16)

Last updated on Tue Sep 22 2026 00:03:11 GMT+0000 (Coordinated Universal Time)

1 36397U 10006A 26264.41115699 -.00000067 00000+0 00000+0 0 9993 2 36397 0.0163 219.0544 0001858 336.6041 278.8471 1.01415307 60623
UTC large
Height (km)
Speed (km/s)
/
Latitude / Longitude
Inclination (degrees)
Orbital Period (minutes)
Azimuth
Elevation
Range (km)
Doppler Factor

Next 0 passes for location: London (51.5072 / 0.1276)

No passes found over London.
INTELSAT 16 (IS-16)